Location: Unspecified
(0.0000°N, 0.0000°E)
Time: 07:45:18
(UTC+00:00)

Vanguard 2 Rocket - Pass Details

Date: 09 October 2023
Orbit: 552 x 3312 km, 32.9° (Epoch: 06 December)

Event Time Altitude Azimuth Distance (km) Brightness Sun altitude
Rises 18:26:16 0° 278° (W) 6,944 13.2 -9.7°
Reaches altitude 10° 18:32:39 10° 267° (W) 5,552 12.5 -11.3°
Maximum altitude 18:44:17 25° 219° (SW) 3,495 10.4 -14.2°
Drops below altitude 10° 18:52:17 10° 167° (SSE) 3,703 9.9 -16.2°
Sets 18:55:33 0° 153° (SSE) 4,300 10.2 -17.0°
